Lapse_Rate
3.6 3.2 3.0 3.1 3.4 3.1 3.3 3.7 3.7 3.8 4.1 4.2 4.2 4.1 4.2 3.8 3.4 2.6 3.4 3.9 3.8 5.2 4.5 5.0 5.4 5.0 5.6 5.8 6.5 5.6 6.2 6.3 6.1 6.5 6.5 6.5 6.5 6.5 6.5 6.5 6.5 6.5 6.5 6.5 6.5 6.5 6.5 6.3 6.4 6.5 6.4 6.3 6.4 5.8
3.3 3.1 3.1 3.3 3.5 3.3 3.4 3.9 4.0 4.1 5.0 5.3 5.4 5.5 5.4 5.0 4.1 3.4 5.7 5.0 4.8 5.3 6.0 6.0 6.7 7.4 6.6 6.6 6.1 5.8 5.7 5.8 5.8 6.5 6.5 6.5 6.5 6.5 6.5 6.5 6.5 6.5 6.5 6.5 6.5 6.5 6.5 6.1 6.3 6.9 6.4 6.1 6.4 5.0
3.4 3.3 3.5 3.3 3.6 3.6 3.9 4.4 5.3 6.3 6.9 7.9 8.2 6.9 6.2 5.5 4.7 3.7 3.9 4.0 4.9 7.2 7.4 7.4 6.6 7.8 7.7 6.7 6.7 6.7 5.3 4.3 5.2 3.3 5.9 6.5 6.5 6.5 6.5 6.5 6.5 6.5 6.4 6.5 6.5 6.5 6.5 6.4 6.4 6.4 6.4 6.6 6.7 5.9
3.6 3.4 3.4 3.5 3.7 4.1 4.6 5.2 6.3 6.7 7.5 7.3 6.4 6.1 5.8 5.3 4.7 4.6 4.8 4.5 5.5 6.4 6.3 6.8 8.9 7.5 8.2 8.7 7.1 6.7 6.2 4.8 3.2 3.5 4.5 6.5 6.5 5.5 6.5 6.5 6.5 6.2 6.3 6.5 6.5 6.4 6.1 6.7 6.9 7.0 6.4 6.3 6.5 6.9
3.3 3.3 3.4 3.6 4.1 4.5 5.2 5.9 6.2 6.2 6.1 5.9 5.6 5.6 5.2 4.4 4.0 5.2 5.9 5.3 6.0 6.7 6.7 6.8 7.5 6.9 7.7 8.9 7.0 5.8 3.7 3.5 5.4 4.1 6.1 6.5 4.7 6.0 5.8 6.5 6.5 6.4 6.5 6.5 6.5 6.4 6.1 6.7 6.7 7.0 6.5 6.0 4.9 4.1
3.1 3.3 3.5 3.7 4.4 5.1 5.7 6.1 5.8 5.7 5.6 5.0 4.7 4.6 4.8 4.7 4.1 4.9 5.9 6.4 5.6 5.4 7.3 6.5 5.8 5.0 5.6 6.8 6.3 4.2 4.3 2.8 3.7 4.5 3.8 3.3 1.2 4.8 6.5 6.5 6.1 6.2 6.4 6.6 6.4 6.7 6.4 6.5 6.2 6.1 5.5 5.4 4.4 3.0
3.4 3.7 3.8 4.1 4.8 5.1 5.2 5.2 5.2 5.0 4.4 4.2 4.1 4.2 4.8 4.7 3.9 4.3 4.7 5.6 5.8 5.1 6.0 6.0 5.8 5.0 4.9 4.7 5.3 4.4 6.1 6.5 5.8 5.9 5.2 5.8 3.9 3.8 6.5 6.5 6.1 5.8 6.3 6.4 5.8 5.1 6.8 6.3 6.4 5.0 3.7 3.2 2.7 1.6
4.0 4.3 4.3 4.8 4.9 4.8 5.0 5.0 4.4 4.1 3.8 3.5 3.7 4.1 4.4 4.4 4.5 4.0 4.5 5.2 4.4 4.3 5.0 6.5 6.5 5.0 4.6 5.1 4.5 4.6 4.9 7.3 3.3 6.8 6.0 5.7 3.9 3.3 6.5 5.4 5.3 4.5 5.6 5.8 5.9 5.7 5.4 5.7 5.3 5.1 4.7 3.8 2.5 1.7
4.4 5.1 5.4 5.4 5.2 5.4 5.3 4.4 4.2 3.7 3.2 2.9 3.3 4.3 3.9 2.1 2.0 2.7 4.4 4.7 4.2 4.2 3.5 5.0 6.5 6.5 4.2 4.7 4.7 4.2 3.9 6.4 3.5 6.5 5.9 6.0 6.5 6.5 6.2 5.1 4.5 4.7 4.6 4.8 5.3 4.3 4.1 3.7 3.8 3.6 3.1 2.1 0.5 -1.1
5.0 5.5 5.6 5.7 5.5 5.4 5.3 4.7 3.8 3.4 3.0 3.5 3.9 2.9 1.7 2.6 3.6 3.6 2.7 3.0 2.2 3.4 4.4 4.9 5.1 6.5 4.4 5.0 4.7 4.0 3.6 6.5 6.5 6.1 4.2 6.5 6.5 4.7 3.8 3.0 2.6 2.2 2.7 2.4 4.9 5.0 4.7 3.9 2.8 -0.2 -2.0 -3.5 -2.8 -3.7
4.9 5.3 6.2 6.4 5.5 5.7 5.7 4.9 4.1 3.1 3.0 2.3 1.1 1.5 1.6 3.1 1.9 1.7 2.0 4.2 2.9 4.8 4.7 5.1 4.1 5.9 4.8 6.3 6.5 5.1 6.5 6.5 6.5 6.4 6.5 6.5 6.5 4.7 3.2 2.5 1.6 1.5 1.3 0.4 0.2 -0.8 -1.9 -1.4 -2.3 -2.7 -2.3 -3.1 -3.9 -3.6
4.7 5.3 6.6 6.4 5.4 6.3 5.7 4.9 4.6 2.4 2.4 3.2 3.1 2.5 0.8 1.3 2.0 5.9 6.5 4.7 6.2 6.5 5.2 4.8 4.8 4.5 5.9 5.2 6.6 4.6 6.5 6.5 6.5 4.8 6.5 6.5 6.5 3.5 3.3 2.3 1.7 0.7 -0.3 -1.8 -2.5 -1.9 -2.3 -2.0 -2.9 -2.9 -2.9 -2.8 -3.1 -4.0
4.7 5.2 6.6 7.8 6.4 6.3 5.3 5.0 4.6 3.8 3.8 2.4 1.6 1.6 2.4 2.0 6.5 6.5 6.5 6.5 6.5 5.2 5.0 5.6 5.9 4.9 5.4 5.9 3.8 6.4 6.5 6.5 4.6 6.5 6.5 6.5 3.1 2.4 1.1 -1.1 -1.7 -3.5 -3.0 -2.0 -1.3 -1.8 -1.5 -1.8 -1.1 -0.3 -1.2 -2.8 -3.0 -2.1
4.5 4.9 5.4 7.4 7.1 6.0 5.3 4.6 4.0 3.4 2.1 -0.4 1.4 6.5 6.3 6.5 6.5 6.5 6.5 6.3 4.8 4.7 5.2 4.9 4.7 4.2 4.9 5.9 5.8 6.5 6.5 6.1 6.5 6.5 6.5 6.3 1.3 -0.3 -0.8 -0.9 -0.0 -0.6 -2.0 -1.5 -0.9 -0.3 0.3 1.5 1.0 0.7 0.8 -0.1 -0.2 0.3
4.9 4.9 6.2 7.2 6.7 5.7 4.6 4.3 3.6 2.1 1.1 0.3 1.8 6.5 6.5 3.8 3.1 3.0 2.4 3.5 5.1 5.0 5.9 4.9 4.3 4.4 6.3 6.5 6.5 6.5 6.5 6.5 6.5 6.5 6.5 2.2 0.8 0.9 0.8 1.1 0.7 1.0 0.0 0.4 1.0 1.7 2.4 2.6 1.5 1.2 1.2 0.8 1.1 1.8
4.4 4.9 5.6 5.9 5.2 4.8 3.5 3.3 1.8 1.1 -0.5 1.2 2.2 5.0 3.7 4.5 3.8 3.1 3.7 4.5 4.2 4.4 5.0 5.0 5.2 6.5 6.5 6.5 6.5 6.5 6.5 6.5 6.5 6.2 2.6 1.3 2.3 2.7 2.7 2.9 2.5 2.2 1.9 2.2 2.2 2.4 2.2 1.7 1.3 0.8 1.0 0.8 0.8 1.7
4.5 4.4 5.2 4.7 4.1 3.9 2.5 1.1 0.2 -1.4 0.7 2.8 3.0 2.8 4.1 3.6 3.5 3.8 5.4 4.4 3.3 3.5 6.4 3.5 6.5 6.5 5.8 6.5 6.5 6.5 6.5 6.5 3.0 3.4 4.1 4.4 4.2 3.3 2.3 3.8 3.7 2.8 2.1 1.8 1.7 1.8 1.7 2.2 0.9 1.2 1.1 1.5 1.4 1.3
3.6 4.0 4.5 4.1 3.7 3.2 -1.0 -1.6 -1.0 -0.2 2.1 0.8 3.0 3.4 4.0 4.2 4.7 4.8 2.8 1.9 2.6 4.8 3.3 5.8 3.6 6.5 6.5 6.5 6.5 5.6 2.3 2.4 5.3 5.3 4.4 2.1 1.0 0.6 2.5 1.9 1.7 1.6 1.4 1.3 1.0 0.8 0.9 0.7 1.1 2.0 2.1 2.3 0.9 0.4
3.8 3.4 3.8 3.2 3.0 0.1 -0.9 -2.1 -2.4 0.7 0.6 0.8 1.6 2.0 2.7 3.8 2.0 1.5 1.7 1.4 1.8 3.5 1.9 2.6 6.5 6.5 6.5 1.9 2.1 2.1 3.0 4.0 4.2 3.4 1.9 -0.8 -0.5 -0.0 0.7 1.3 1.4 0.9 1.0 0.9 0.9 0.6 0.8 1.7 2.6 2.9 2.9 2.3 2.8 2.6
3.2 2.8 3.0 1.9 2.6 -0.4 -0.7 -2.3 -3.3 -0.0 1.8 0.7 0.7 1.6 0.7 1.5 0.7 0.8 0.9 1.0 2.5 2.3 3.6 6.2 6.7 2.1 1.8 1.8 1.5 1.6 1.4 1.1 1.6 1.9 2.1 1.0 -1.2 -2.1 0.3 1.3 1.9 2.0 1.2 1.0 1.0 4.8 1.3 2.3 3.2 3.8 3.2 3.6 3.1 4.4
2.8 2.6 2.1 1.0 -3.3 -3.5 -4.2 -4.8 -3.0 -4.4 -1.8 0.3 -1.9 -1.1 0.7 -0.1 0.6 1.4 1.3 0.1 0.8 1.1 2.6 2.5 1.6 -0.1 -2.3 -2.6 -1.0 -0.2 -0.8 -1.0 0.3 0.3 1.0 0.7 0.9 1.7 1.4 1.2 1.0 1.9 0.7 0.4 0.5 1.6 4.7 3.2 3.8 3.7 2.2 4.4 5.4 5.4
1.0 2.5 -1.3 -0.6 -2.4 -3.6 -5.1 -7.8 -4.2 -4.4 -1.8 -0.6 -0.6 -1.7 0.8 2.2 1.4 -0.1 -3.4 -1.5 0.5 1.6 1.0 0.2 -0.1 -0.7 -1.1 -1.8 -2.0 -3.2 -2.2 -2.1 -2.8 -0.7 4.3 3.7 2.0 2.0 2.1 2.6 2.3 0.9 1.3 1.7 2.1 2.9 3.4 3.4 3.0 3.4 4.6 5.5 7.2 6.7
1.5 1.0 -2.8 -2.5 -0.5 -1.2 0.1 -7.6 -0.9 -2.2 6.4 1.7 -0.7 3.8 2.2 1.2 -1.3 -3.9 -1.1 -0.1 0.4 -2.4 -2.6 -1.9 -3.0 -4.9 -3.1 -4.8 -4.3 -3.8 -3.9 -3.1 -2.1 -1.6 0.2 0.1 0.8 2.5 2.4 2.2 2.3 0.6 1.1 2.7 3.2 2.9 2.8 5.4 5.5 5.5 4.1 5.2 4.9 5.1
-0.5 -4.6 -1.3 -1.9 -2.3 3.0 -3.4 -0.5 -1.6 0.3 0.4 3.7 6.3 6.5 5.6 1.0 -2.3 0.9 6.5 0.4 -0.6 -2.9 -3.3 -3.5 -4.8 -3.3 -3.9 -4.8 -3.9 -2.6 -1.3 -1.9 -2.1 -1.5 -0.9 -0.2 0.8 1.2 2.3 2.8 3.3 3.4 3.1 2.3 2.0 2.9 2.5 2.6 6.2 3.8 3.3 3.5 4.6 4.9
1.6 1.8 -0.6 2.7 -3.7 1.2 6.5 6.5 3.9 5.0 6.5 6.5 6.5 6.5 5.5 -1.1 6.5 6.5 6.5 0.6 -0.4 -1.5 -1.3 -2.3 -1.9 -1.0 -1.0 -2.5 -1.0 0.0 -1.1 -0.3 -0.5 -0.1 0.2 1.0 -0.7 -0.0 1.5 2.9 3.4 4.1 4.1 4.2 4.0 3.8 3.7 2.6 2.9 3.3 4.4 5.3 5.0 4.4
6.5 -0.8 3.0 0.3 1.5 5.2 5.3 6.5 6.5 6.5 6.5 6.5 6.1 1.2 -0.1 5.3 6.5 6.5 5.0 0.4 -0.9 -1.4 -1.6 -1.1 -0.4 -0.5 -0.1 1.0 2.3 1.7 2.1 0.9 -0.2 -0.0 0.7 1.5 2.4 3.4 3.6 3.6 4.3 4.2 4.7 5.3 4.6 2.4 4.1 4.2 4.3 4.0 4.9 5.0 6.9 7.0
6.5 5.6 -1.7 -1.9 -0.8 -0.2 2.7 1.6 2.5 4.1 6.5 6.5 6.5 5.9 6.5 6.5 6.5 4.9 0.6 -0.8 -0.4 -1.5 -2.6 -2.7 -2.2 -1.1 0.8 1.4 1.1 0.7 0.2 -0.5 0.8 0.7 -1.2 -0.8 0.7 2.1 3.8 3.9 3.8 4.3 2.2 2.0 2.5 4.9 5.5 6.0 6.0 6.0 6.1 6.0 5.5 5.6
-0.0 -0.0 6.3 0.2 0.5 -0.9 4.5 4.7 6.5 6.5 6.5 2.3 2.5 6.5 6.5 6.5 6.5 1.5 0.3 -2.1 -3.9 -5.6 -6.1 -4.5 -3.6 -3.0 -2.5 -1.6 -2.9 -3.3 -3.3 -3.3 -3.1 -2.6 -1.2 0.2 0.8 1.8 2.4 3.2 3.6 6.1 6.5 6.8 6.9 7.5 7.6 7.5 7.3 7.0 6.4 6.6 7.5 7.0
-0.1 -0.6 -0.2 1.7 -1.2 -0.1 0.6 5.0 4.0 1.0 1.0 1.2 5.4 6.5 2.9 1.0 -1.8 -1.8 -1.3 -3.0 -5.2 -5.3 -3.5 -2.9 -2.7 -4.4 -4.6 -4.6 -4.8 -4.9 -4.0 -2.1 0.4 1.5 1.7 2.7 3.6 4.2 2.9 3.7 4.2 4.7 5.4 6.0 7.8 8.7 8.4 8.1 7.8 7.6 7.4 5.6 5.9 5.8
-0.6 -2.5 0.1 -0.9 5.6 6.5 0.2 -0.4 0.1 -5.0 -4.8 -5.0 -4.9 -2.9 -1.5 -2.1 -3.2 -3.9 -3.1 -3.1 -2.4 -2.8 -4.5 -5.7 -6.2 -5.2 -3.4 -3.7 -2.1 -1.2 -2.3 -2.9 -2.2 -0.6 0.2 1.4 2.3 3.6 4.6 4.7 4.9 5.2 5.7 5.9 5.8 5.3 7.3 6.7 5.5 3.7 4.6 5.7 5.9 6.3
-2.8 -2.1 0.1 1.3 2.3 -0.9 -4.3 -6.9 -8.0 -6.8 -7.5 -7.6 -8.1 -3.3 -1.3 -3.4 -2.3 -2.1 -1.8 -2.9 -4.0 -5.6 -3.9 -1.8 -1.8 -3.3 -2.8 -2.8 -3.1 -2.7 0.5 -0.0 0.3 1.7 2.7 3.8 3.2 3.9 4.9 4.9 4.8 5.0 5.5 5.8 6.1 6.1 5.8 3.6 2.8 4.3 4.6 3.8 3.8 7.3
-0.9 -0.3 0.8 6.3 2.1 -3.3 -6.1 -5.9 -5.7 -5.4 -5.3 -4.9 -3.2 -5.6 -3.4 -1.8 -0.3 0.4 -1.0 -2.0 -2.3 -0.9 2.7 0.6 -0.6 1.1 -1.0 -2.8 -2.8 -1.2 5.6 3.4 2.0 1.9 1.5 3.1 4.3 4.6 4.7 4.6 5.1 6.0 6.6 7.1 5.7 3.7 2.9 3.5 4.1 3.4 4.6 4.3 4.4 3.9
-2.6 -1.9 -1.9 -0.0 -0.1 -0.1 -3.0 -4.2 -2.0 -1.0 -1.4 -0.5 -0.1 -0.8 -1.0 0.2 1.5 -0.5 -2.0 -0.6 1.9 1.4 1.5 1.0 1.2 1.0 0.4 0.1 0.1 1.4 4.8 0.9 1.6 8.8 9.3 9.7 9.8 9.2 8.5 5.1 5.6 7.4 5.7 2.8 1.6 3.5 4.3 3.0 1.8 1.4 2.0 2.0 1.8 1.0
Wind_Speed
10 14 15 16 15 16 18 18 20 22 23 24 24 24 23 20 21 9 1 3 2 2 3 7 6 4 5 3 2 1 2 1 1 1 2 4 2 3 0 3 5 6 6 4 3 2 7 6 2 2 2 4 3 5
10 12 15 16 15 17 17 19 21 22 25 25 25 24 23 19 19 16 1 4 4 1 3 5 8 8 5 3 2 3 0 1 2 1 1 2 1 2 1 2 2 1 3 4 2 2 4 5 5 3 3 5 6 8
8 10 12 15 15 18 18 19 20 23 24 25 25 25 22 18 15 11 2 4 2 2 2 1 3 3 6 2 1 2 2 4 2 1 1 1 2 2 1 3 2 1 1 2 4 4 6 6 8 11 10 8 7 10
9 11 13 15 16 17 19 20 21 23 25 26 26 24 18 15 12 8 3 5 1 2 1 3 2 2 6 4 3 3 4 1 2 1 1 1 1 3 2 2 2 3 4 2 4 4 4 8 8 8 10 10 11 10
11 13 13 14 15 16 18 19 21 24 25 27 26 20 16 15 8 5 5 6 6 3 3 2 2 4 7 5 6 4 2 2 1 1 1 1 1 3 1 2 4 5 5 3 2 4 1 6 8 9 10 10 10 11
11 11 13 14 14 16 19 21 23 25 27 27 22 17 9 10 4 2 2 2 11 4 1 1 2 3 5 6 3 3 2 2 1 1 1 2 2 1 1 3 2 6 5 7 2 6 10 9 11 11 11 11 11 11
9 11 13 14 14 17 20 23 25 27 28 26 15 8 7 10 5 3 2 5 13 2 1 1 1 1 3 3 1 3 2 2 2 1 3 2 1 2 2 3 3 5 6 6 6 4 5 9 6 9 11 11 13 10
8 11 12 14 15 17 20 23 26 29 29 19 9 4 5 5 5 2 2 14 7 2 1 2 3 2 5 3 3 2 2 1 4 2 1 2 2 2 3 1 1 5 3 7 9 8 9 7 8 7 6 7 9 8
8 10 9 11 16 18 21 24 27 29 26 12 6 4 0 3 3 2 17 8 3 2 2 3 3 3 5 1 1 2 1 2 2 3 1 1 4 4 1 2 3 5 3 4 5 7 8 7 6 6 6 7 8 4
12 12 6 10 15 17 21 25 27 29 17 9 3 2 2 2 11 10 2 2 4 3 4 2 2 3 3 3 1 3 1 1 2 2 1 3 1 2 0 1 1 3 4 5 1 3 3 4 4 3 2 1 4 4
13 9 8 12 14 17 20 24 25 24 10 3 3 1 2 9 2 3 3 4 3 4 3 1 2 2 2 2 3 2 2 1 3 3 2 1 2 1 0 0 1 2 4 4 3 2 1 2 4 3 2 2 3 3
13 7 7 12 14 18 20 22 23 6 2 3 3 2 2 3 2 6 1 3 4 1 3 2 2 1 2 1 2 2 1 2 1 2 3 2 2 2 2 2 1 2 2 2 2 3 3 5 3 4 3 3 3 3
9 11 11 10 13 17 19 20 18 13 4 1 2 3 3 3 8 5 3 4 3 3 2 3 3 1 2 0 2 2 3 1 1 3 1 2 2 3 3 2 2 2 1 0 1 0 2 1 1 2 2 2 3 3
10 11 9 8 12 17 19 19 15 7 2 3 3 5 3 3 2 1 1 1 0 2 3 2 2 1 2 2 0 2 2 2 2 1 4 3 5 4 4 3 3 3 5 4 4 3 3 3 3 4 4 4 4 4
10 8 5 10 15 17 17 16 8 5 2 2 3 2 2 2 2 2 1 1 2 1 2 3 2 1 2 2 0 2 4 3 1 2 2 3 4 5 4 4 4 4 4 3 3 3 4 4 4 4 4 4 4 4
12 2 6 14 17 16 14 7 4 2 3 3 4 3 1 1 1 1 2 1 2 2 1 1 2 2 3 2 1 4 0 3 3 2 2 4 5 4 4 4 4 3 3 2 2 2 1 1 2 4 2 3 4 5
6 3 13 15 17 10 12 3 3 4 3 3 1 1 1 1 1 1 1 2 1 1 1 2 1 6 1 2 3 2 3 2 2 1 2 5 6 5 4 4 3 3 2 1 1 1 1 1 1 1 4 4 5 6
3 9 11 13 14 3 2 3 3 3 4 1 2 0 1 1 1 2 2 2 2 1 1 3 1 1 4 3 3 2 1 0 3 2 3 3 4 4 4 5 4 3 1 1 2 2 2 2 3 4 5 5 4 4
8 6 9 10 6 2 3 4 3 3 2 0 1 0 0 1 2 2 2 2 1 1 1 1 0 3 3 2 2 1 1 1 2 1 2 2 4 4 4 4 3 2 3 2 2 2 3 4 4 3 3 2 4 4
3 5 8 7 5 2 3 3 1 3 2 2 0 0 0 1 1 1 1 2 1 1 1 3 4 3 2 1 1 1 1 2 2 1 1 2 2 3 4 4 3 3 2 3 3 5 2 3 3 4 3 4 4 6
3 5 7 4 3 4 3 1 3 1 0 1 0 0 1 1 0 1 1 2 2 3 3 3 2 1 1 0 1 1 2 2 2 3 3 2 3 3 3 3 3 2 2 2 2 4 5 3 4 3 3 4 5 5
1 4 2 3 3 3 4 1 2 1 1 1 0 1 1 1 2 1 1 2 3 3 3 2 2 2 2 2 3 3 2 3 1 1 3 0 2 2 2 3 3 3 3 3 3 4 5 4 3 4 5 5 8 5
2 2 3 3 4 3 3 1 2 2 1 2 2 1 2 1 2 1 1 3 3 2 1 1 2 2 2 1 1 3 3 4 3 3 3 3 3 2 2 2 3 3 3 3 3 4 4 9 8 8 4 5 4 5
6 3 3 1 2 3 1 2 1 2 2 1 0 4 1 1 2 2 3 3 2 1 0 2 2 0 1 2 2 3 4 4 2 2 3 3 2 3 4 3 3 4 4 3 3 4 4 4 11 4 4 4 6 6
4 3 3 2 2 3 2 2 3 3 3 1 1 4 2 2 2 1 3 3 1 1 0 1 1 1 2 3 3 2 3 4 4 5 3 4 2 0 1 3 4 5 3 3 6 6 6 4 4 5 6 7 10 11
1 3 4 4 2 3 4 2 4 5 2 2 4 1 1 2 1 5 3 2 1 1 1 1 1 3 3 4 4 2 3 3 3 3 3 5 6 5 5 4 4 4 5 6 5 4 6 6 6 8 9 13 20 14
3 5 2 0 1 3 2 2 2 2 2 5 3 2 2 0 5 4 1 1 1 1 1 2 2 3 5 3 3 2 2 2 3 2 1 2 1 3 4 4 7 5 2 2 4 7 9 9 9 10 11 11 10 9
4 3 5 3 1 1 4 1 4 6 4 2 3 3 6 8 5 2 1 1 1 2 3 3 3 3 3 3 2 3 3 2 3 3 3 4 5 5 5 4 4 15 8 7 7 7 7 8 9 11 13 11 7 5
1 0 3 1 2 1 5 6 4 2 0 3 4 3 4 1 1 0 1 1 1 1 3 3 3 3 2 2 2 2 2 0 2 4 4 3 2 2 1 3 4 5 5 6 15 16 13 10 10 8 6 4 5 5
2 1 2 1 5 5 3 0 1 1 2 1 0 3 2 2 2 1 0 1 2 1 2 2 2 2 2 3 4 4 2 3 3 3 2 3 3 4 6 6 7 6 5 6 7 7 14 9 8 4 6 6 6 7
1 1 1 1 4 1 1 1 1 1 2 1 1 2 3 3 3 2 2 2 1 1 2 2 2 1 2 3 2 3 5 2 2 5 5 5 5 6 7 8 8 7 7 7 6 5 5 3 3 4 6 7 8 11
1 2 3 2 3 2 2 2 1 1 1 1 2 0 3 3 2 2 3 3 1 1 2 1 1 3 3 3 3 4 12 6 4 4 7 6 7 9 10 8 8 7 8 4 3 3 2 3 5 6 7 8 7 7
2 2 2 3 4 4 3 3 3 4 2 1 2 2 2 2 5 3 2 2 3 3 2 3 3 3 5 5 5 5 10 4 12 18 21 20 19 16 9 2 4 2 2 4 4 2 3 7 6 7 7 7 7 8
Wind_Direction
69 59 48 41 37 35 28 14 9 4 0 359 359 359 356 358 1 358 16 39 349 265 61 19 17 10 340 352 339 284 54 290 92 228 220 239 191 212 43 134 173 163 158 187 174 138 265 4 65 182 342 5 53 84
65 54 47 38 27 23 18 6 3 358 353 352 350 350 351 353 359 352 275 61 330 294 70 79 83 66 50 327 314 318 216 251 359 264 312 342 287 46 348 248 344 258 174 173 152 155 57 16 62 335 332 62 50 89
57 44 37 24 16 12 9 5 0 354 351 349 348 346 345 351 358 359 329 359 297 197 142 165 22 355 13 76 263 290 46 354 28 183 315 293 258 94 211 251 122 157 352 67 113 65 76 61 50 45 46 51 75 101
41 45 29 19 12 11 9 4 359 357 353 348 346 343 350 352 351 15 50 351 332 311 321 55 20 9 319 24 34 269 283 264 244 291 279 258 235 44 309 242 81 349 335 359 84 68 71 61 57 61 52 53 65 74
43 33 27 18 11 13 8 2 359 357 351 346 345 348 354 2 2 85 85 48 18 3 356 107 248 16 352 343 26 21 38 320 296 338 50 240 17 22 341 27 52 355 6 10 62 329 309 54 49 73 71 62 53 73
43 31 21 16 13 9 1 358 355 353 348 344 345 346 6 20 64 198 140 75 17 355 281 182 252 338 341 340 12 8 14 17 324 31 125 99 218 74 64 88 41 4 10 16 53 27 72 74 60 65 77 75 74 72
37 23 19 14 6 359 356 352 349 349 346 344 351 12 19 24 28 57 96 323 346 302 302 46 359 1 316 281 53 353 38 38 25 55 45 352 77 47 5 76 12 348 358 14 9 357 80 27 78 68 79 77 82 73
13 5 4 0 358 354 349 349 348 348 345 346 354 10 30 84 111 91 21 350 352 291 2 50 323 30 0 334 350 4 349 17 12 35 187 12 342 40 59 340 335 357 350 34 21 35 71 86 74 71 78 89 82 76
340 339 347 353 354 353 350 349 349 345 344 346 330 297 287 34 30 283 320 325 305 79 85 64 7 306 352 279 229 345 65 23 268 30 41 353 13 47 305 322 27 352 22 349 35 52 60 68 66 54 63 67 89 74
348 352 13 355 356 355 348 350 350 346 344 343 356 13 21 342 311 316 7 25 17 6 28 68 296 298 10 339 324 358 8 48 36 284 313 59 93 156 300 231 283 329 359 346 160 51 55 67 69 42 56 39 121 129
345 337 345 353 354 350 349 353 353 351 15 20 8 21 267 317 25 31 41 55 329 40 18 336 99 306 358 7 317 87 293 350 41 302 66 14 57 264 186 294 283 320 14 36 67 82 92 144 145 130 87 70 98 111
351 6 341 357 351 345 350 355 357 19 8 303 287 298 317 20 12 76 9 348 45 33 360 357 299 256 310 333 284 339 321 38 308 292 45 41 256 197 177 198 150 46 42 32 37 77 53 79 95 117 127 155 174 171
344 341 340 344 348 346 349 353 353 348 333 332 29 38 47 317 40 72 354 332 24 2 23 344 325 330 312 256 314 25 21 223 317 36 95 208 199 166 179 184 253 237 229 296 275 61 92 93 38 112 169 228 172 176
333 340 351 1 344 346 349 349 350 353 45 79 56 19 85 1 65 110 96 90 349 339 343 312 278 347 330 316 11 37 247 45 0 178 220 210 198 195 185 201 152 221 208 225 239 209 210 219 228 213 210 197 182 221
349 10 16 3 347 348 350 345 354 30 49 72 54 63 58 181 53 88 123 325 176 297 336 334 307 98 285 353 102 13 1 275 207 227 201 167 153 152 169 187 203 205 196 219 215 207 225 220 215 241 231 208 202 215
351 112 21 350 348 350 350 0 24 59 41 61 54 69 337 52 186 177 172 235 43 345 331 83 275 360 272 150 358 232 100 237 223 173 140 119 148 174 156 150 156 151 162 172 172 193 215 242 234 238 250 211 218 217
340 64 347 345 346 357 18 59 51 41 97 56 12 292 72 92 135 93 73 77 348 44 291 65 25 229 354 355 282 182 211 221 166 93 126 142 156 153 139 137 126 123 117 107 102 341 247 258 80 316 276 263 239 227
30 324 336 348 349 30 41 26 76 74 63 341 95 171 6 90 1 93 85 35 13 113 87 215 62 45 217 196 269 233 148 98 44 84 119 117 117 127 134 137 125 129 160 220 227 246 241 254 249 256 250 249 245 244
328 354 358 359 12 70 62 4 49 109 207 237 254 152 2 76 78 81 66 37 339 342 75 48 320 213 241 197 187 244 113 116 157 172 121 68 127 141 142 134 153 183 202 223 232 250 251 243 244 255 266 262 250 248
351 25 11 25 36 83 56 341 58 103 174 221 7 72 7 59 56 76 78 26 321 137 80 216 218 226 167 215 111 141 112 96 113 117 217 181 172 142 180 180 196 157 206 254 250 286 273 273 245 240 234 233 246 258
29 2 18 55 39 58 93 13 39 128 279 165 102 50 230 78 107 131 112 341 53 210 238 225 221 185 66 54 2 53 110 121 189 173 207 166 188 178 178 199 183 188 189 238 256 282 314 269 268 262 248 265 268 269
343 4 64 14 78 30 73 318 130 212 95 178 58 110 227 234 186 177 309 65 234 237 200 192 219 147 162 237 225 197 168 147 99 312 257 229 127 171 208 199 163 213 213 224 224 247 266 261 269 260 255 258 277 276
40 41 42 42 58 49 261 38 74 355 93 272 21 347 273 217 215 114 288 219 250 234 150 173 201 184 143 215 339 274 190 169 208 210 233 209 211 194 164 182 175 182 231 258 225 239 253 284 301 308 278 288 277 275
35 60 89 93 89 231 38 8 51 34 16 357 145 279 262 216 318 74 249 250 240 126 192 240 177 233 342 354 244 229 206 186 211 256 205 166 202 240 204 213 204 210 214 229 237 256 254 252 288 298 279 272 274 272
67 317 94 282 327 72 81 10 350 53 252 232 340 284 285 12 32 267 228 271 312 293 286 129 133 276 265 292 313 275 187 167 190 214 233 196 185 34 252 220 226 229 206 238 263 252 256 249 261 263 269 273 270 266
197 251 146 202 242 144 189 168 201 214 181 274 234 237 36 74 44 252 234 226 194 139 341 38 335 305 274 212 261 281 263 195 154 198 254 189 201 211 224 221 247 259 208 228 239 237 255 259 261 267 273 276 285 301
226 247 225 261 140 99 58 42 34 113 194 213 223 145 87 5 249 249 190 325 124 235 243 245 230 243 267 297 306 309 309 198 195 213 297 319 265 218 213 226 243 249 146 179 230 255 266 273 270 265 265 269 271 270
218 167 180 197 116 84 154 169 172 209 225 198 93 191 190 199 234 218 164 208 200 284 278 259 229 219 248 266 283 321 319 335 314 305 288 259 236 237 237 254 275 287 283 278 277 273 271 270 275 274 274 279 288 281
155 260 95 81 14 188 208 195 219 211 92 142 171 239 244 306 216 249 287 273 284 26 26 11 339 321 310 287 268 251 241 265 27 337 306 292 340 349 184 241 254 266 269 269 284 295 295 290 280 289 326 330 312 303
258 29 100 123 165 225 225 138 182 20 31 139 240 316 298 281 257 185 317 9 70 120 228 223 263 28 9 26 335 336 276 201 185 179 243 279 263 292 298 290 284 279 276 274 276 280 295 309 309 329 318 309 304 299
66 72 52 193 240 273 26 354 3 30 31 8 6 169 251 301 306 231 181 178 159 329 23 4 348 353 48 351 345 330 319 310 209 233 246 260 256 265 274 275 275 275 274 273 275 273 266 294 289 290 291 292 295 312
55 161 145 252 276 311 26 32 331 325 282 11 277 4 323 7 281 259 203 131 113 323 290 163 248 277 217 230 245 238 278 285 283 262 260 263 267 264 266 269 269 267 266 258 248 248 236 275 286 281 288 285 285 295
55 36 20 352 333 346 335 25 4 327 336 284 265 201 223 198 237 265 296 211 194 201 245 255 251 259 259 255 250 278 309 270 288 303 314 309 302 291 300 268 282 226 198 247 262 235 271 278 275 274 275 278 286 291